Home   Weather   Podgorica   Past weeks

Flag for Montenegro Past Weather in Podgorica, Montenegro — Yesterday and Last 2 Weeks

Now
95 °F

Passing clouds.


Feels Like: 92 °F
Forecast: 65 / 92 °F
Wind: 6 mph from South

Location: Podgorica Titograd

Current Time: Aug 16, 2017 at 3:12:43 pm

Latest Report: Aug 16, 2017 at 2:30 pm


Visibility: N/A

Pressure: 29.95 "Hg

Humidity: 23%

Dew Point: 52 °F

Location of PodgoricaLocation

Past Weather in Podgorica — Graph

°F

Podgorica Temperature Yesterday

Maximum temperature yesterday: 91 °F (at 3:00 pm)
Minimum temperature yesterday: 72 °F (at 5:30 am)
Average temperature yesterday: 81 °F

High & Low Weather Summary for the Past Weeks

 TemperatureHumidityPressure
High106 °F (Aug 9, 3:30 pm)88% (Aug 13, 1:30 am)30.07 "Hg (Aug 13, 1:30 am)
Low64 °F (Aug 13, 1:30 am)12% (Aug 9, 5:00 pm)29.77 "Hg (Aug 5, 4:30 pm)
Average87 °F38%29.91 "Hg
* Reported Aug 1 2:00 pm — Aug 16 2:00 pm, Podgorica. Weather by CustomWeather, © 2017

Note: Actual official high and low records may vary slightly from our data, if they occured in-between our weather recording intervals... More about our weather records

Advertising

Podgorica Weather History for the Previous 24 Hours

Scroll right to see more
 ConditionsComfort  
Time TempWeatherWind HumidityBarometerVisibility
2:00 pm
Wed, Aug 16
93 °FPassing clouds.6 mph24%29.95 "HgN/A
1:30 pm93 °FPassing clouds.6 mph26%29.95 "HgN/A
1:00 pm93 °FPassing clouds.6 mph28%29.98 "HgN/A
12:30 pm91 °FSunny.3 mph30%29.98 "Hg10 mi
12:00 pm91 °FPassing clouds.3 mph28%29.98 "HgN/A
11:30 am91 °FSunny.1 mph28%30.01 "Hg10 mi
11:00 am90 °FSunny.1 mph29%30.01 "Hg10 mi
10:30 am90 °FSunny.2 mph29%30.01 "Hg10 mi
10:00 am88 °FPassing clouds.5 mph31%30.01 "HgN/A
9:30 am86 °FPassing clouds.7 mph35%30.01 "HgN/A
9:00 am84 °FSunny.9 mph35%30.01 "Hg10 mi
8:30 am82 °FPassing clouds.9 mph37%30.01 "HgN/A
8:00 am81 °FSunny.9 mph39%30.01 "Hg10 mi
7:30 am79 °FPassing clouds.7 mph42%30.01 "HgN/A
7:00 am77 °FSunny.8 mph44%30.01 "Hg10 mi
6:30 am75 °FSunny.9 mph47%30.01 "Hg10 mi
6:00 am75 °FSunny.8 mph47%29.98 "Hg10 mi
5:30 am75 °FClear.9 mph47%29.98 "Hg10 mi
5:00 am75 °FClear.8 mph50%29.98 "Hg10 mi
4:30 am79 °FClear.9 mph45%30.01 "Hg10 mi
4:00 am79 °FClear.8 mph45%30.01 "Hg10 mi
3:30 am79 °FClear.8 mph45%30.01 "Hg10 mi
3:00 am79 °FClear.7 mph45%30.01 "Hg10 mi
2:30 am77 °FPassing clouds.9 mph47%30.01 "HgN/A
2:00 am77 °FClear.2 mph51%30.01 "Hg10 mi
1:30 am75 °FClear.1 mph61%30.01 "Hg10 mi
1:00 am75 °FPassing clouds.3 mph65%30.01 "HgN/A
12:30 am75 °FClear.2 mph61%30.01 "Hg10 mi
12:00 am75 °FClear.1 mph61%30.01 "Hg10 mi
11:30 pm
Tue, Aug 15
77 °FClear.1 mph57%30.01 "Hg10 mi
11:00 pm77 °FPassing clouds.3 mph57%30.01 "HgN/A
10:30 pm77 °FClear.1 mph57%30.01 "Hg10 mi
10:00 pm77 °FClear.2 mph57%30.01 "Hg10 mi
9:30 pm79 °FPassing clouds.6 mph51%29.98 "HgN/A
9:00 pm79 °FPassing clouds.5 mph54%29.98 "HgN/A
8:30 pm81 °FPassing clouds.3 mph51%29.98 "HgN/A
8:00 pm82 °FPassing clouds.1 mph45%29.98 "HgN/A
7:30 pm86 °FPassing clouds.3 mph38%29.95 "HgN/A
7:00 pm88 °FPassing clouds.6 mph35%29.95 "HgN/A
6:30 pm90 °FPassing clouds.5 mph33%29.95 "HgN/A
6:00 pm90 °FPassing clouds.7 mph31%29.95 "HgN/A
5:30 pm91 °FPassing clouds.6 mph28%29.95 "HgN/A
5:00 pm91 °FPassing clouds.6 mph28%29.98 "HgN/A
4:30 pm91 °FPassing clouds.8 mph28%29.98 "HgN/A
4:00 pm91 °FPassing clouds.7 mph30%29.98 "HgN/A
3:30 pm91 °FPassing clouds.8 mph30%29.98 "HgN/A
3:00 pm91 °FPassing clouds.8 mph26%29.98 "HgN/A
Weather by CustomWeather, © 2017

See weather overviewHow to use our weather pages